User: anonymous   Login
Location: Geroldsau
(48.7259°N, 8.2466°E)
Time: 22:18:00
(UTC+00:00)
Language:

Cosmos 2058 - Orbit

View from above orbital plane
View from above orbital plane
View from above satellite
View from above satellite

Ground track
Ground track

The orbit data is extracted from the following two-line orbital elements,

1 20465U 90010A   21266.17969442  .00000524  00000-0  41620-4 0  9994
2 20465  82.4921 187.9972 0017016  81.5530 278.7621 14.98282659718716
Epoch (UTC): 23 September 2021 04:18:45
Eccentricity: 0.0017016
inclination: 82.4921°
perigee height: 560 km
apogee height: 584 km
right ascension of ascending node: 187.9972°
argument of perigee: 81.5530°
revolutions per day: 14.98282659
mean anomaly at epoch: 278.7621°
orbit number at epoch: 71871

The dashed part of the orbit path shows where the satellite is in the earth's shadow,  

DLR